SCP
1 1 2 2 1 1 1 1 1 1 1 1 1 1 1 1 0 0 0 0 1 1 1 1 1 1 1 1 1 1 1 1 0 0 0 1 1 1 0 0 0 0 0
1 1 2 2 2 2 1 1 1 1 1 1 1 1 1 0 0 0 0 1 1 1 1 1 1 1 1 1 1 1 1 1 0 0 0 0 1 1 0 0 0 0 0
1 1 2 2 2 2 2 2 1 1 1 1 1 1 0 0 0 0 1 1 1 0 0 1 1 1 1 1 1 1 1 1 1 0 0 0 0 0 0 0 0 0 0
0 1 1 2 2 2 2 2 2 1 1 1 1 1 0 0 0 0 1 1 1 0 0 0 1 1 1 1 1 1 1 1 1 0 0 0 0 0 0 0 0 0 0
0 1 1 1 1 1 1 1 1 1 1 1 1 1 1 0 0 0 1 1 1 1 1 1 1 1 1 1 0 0 0 0 0 0 0 0 0 1 0 0 0 0 0
1 1 1 1 1 1 1 1 1 1 1 1 1 1 1 1 1 1 1 1 1 1 1 1 1 1 1 1 0 0 0 0 0 0 0 0 0 0 0 0 0 0 0
1 1 1 1 1 1 1 1 1 1 1 1 1 1 1 1 1 1 1 1 1 1 1 1 1 1 1 1 1 1 0 0 0 0 0 0 0 0 0 0 0 0 0
1 1 1 1 1 1 1 1 1 1 1 1 1 1 1 1 1 1 1 1 1 1 1 1 1 1 1 1 1 1 1 0 0 0 0 0 0 0 0 0 0 0 0
1 1 1 1 1 1 1 1 1 1 1 1 1 1 1 1 1 1 1 1 1 1 1 1 1 1 1 1 1 1 1 0 0 0 0 0 1 1 0 0 0 0 0
1 1 1 1 1 1 1 1 1 1 1 1 1 1 1 1 1 1 1 1 1 1 1 1 1 1 1 1 1 1 1 1 0 0 0 1 1 1 1 1 1 1 1
1 1 1 1 1 1 1 1 2 1 1 1 1 1 1 1 1 1 1 1 1 1 1 1 1 1 1 1 1 1 1 1 0 1 1 1 1 1 1 1 1 1 1
1 1 1 1 1 1 1 1 2 2 2 2 2 2 1 1 1 1 1 1 1 1 1 1 1 1 1 1 1 1 1 0 1 1 1 1 1 1 1 1 1 1 1
1 1 1 1 1 1 1 1 1 2 2 2 2 2 2 2 2 2 2 1 1 1 1 1 1 1 1 1 1 1 0 0 1 1 1 1 1 1 1 1 1 1 1
1 1 1 1 1 1 1 1 1 1 1 1 1 2 2 2 2 2 2 1 1 1 1 1 1 1 1 1 0 0 0 1 1 1 1 1 1 1 1 1 1 1 1
1 1 1 1 1 1 2 2 1 1 1 1 1 2 2 2 2 2 2 1 1 1 1 1 1 1 1 1 1 0 0 1 1 1 1 1 1 1 1 1 1 1 1
1 1 1 1 1 2 2 2 2 2 1 1 1 2 2 2 1 1 1 1 1 1 1 1 1 1 1 1 1 0 1 1 1 1 1 1 1 1 1 1 1 1 1
1 1 1 1 1 2 2 2 2 2 2 2 2 2 2 2 2 2 2 1 1 1 1 1 1 1 1 1 1 1 1 1 1 1 1 1 1 1 1 1 1 1 1
1 1 1 1 1 2 2 2 2 2 2 2 2 2 3 3 3 2 2 2 2 2 2 2 1 1 1 1 1 1 1 1 1 1 1 1 1 1 1 1 1 1 1
1 1 1 2 2 2 2 2 2 2 2 2 2 2 3 3 3 3 2 2 3 3 2 2 2 2 2 1 1 1 1 1 1 1 1 1 1 1 1 1 2 2 2
1 1 2 2 2 3 3 3 3 3 3 3 3 3 3 3 3 3 3 3 4 3 3 2 2 2 2 2 2 1 1 1 1 1 1 1 1 1 1 2 2 2 2
1 1 2 2 3 4 4 4 4 4 4 3 3 3 3 3 3 3 3 4 4 4 3 3 2 2 2 2 2 2 1 1 1 1 1 1 1 1 2 2 2 2 2
1 1 2 2 3 4 4 5 5 5 4 4 4 4 3 4 4 4 4 5 4 4 3 3 2 2 2 2 2 2 2 2 1 1 1 1 2 2 2 2 2 2 2
1 1 1 2 2 3 4 4 4 5 5 4 4 4 4 5 5 5 5 5 4 4 4 3 2 2 2 2 2 2 2 2 2 2 1 2 2 2 2 2 2 3 3
1 1 2 2 3 4 4 4 4 4 4 4 4 4 5 5 5 5 5 5 4 4 3 3 3 2 2 2 2 2 3 3 3 3 2 2 2 3 3 3 3 3 3
2 2 3 4 5 5 4 4 4 4 3 3 4 5 5 6 5 5 5 4 4 3 3 3 3 3 3 3 3 3 4 4 5 4 4 3 3 3 3 3 3 3 3
2 3 4 6 6 5 4 4 4 3 3 3 3 4 5 6 5 4 4 3 3 3 3 3 3 4 4 4 4 4 4 5 5 6 5 4 4 4 4 4 3 3 3
Wind_Speed
3 5 6 6 7 8 8 9 10 11 11 11 11 11 11 12 12 13 13 13 13 14 14 14 14 14 14 14 13 14 14 14 14 14 13 13 12 11 11 11 10 11 13
4 6 7 6 8 8 9 10 10 11 11 11 11 11 11 11 12 12 13 13 13 14 14 14 13 13 13 13 13 13 13 14 13 13 13 12 11 10 9 8 6 10 12
4 6 7 6 7 8 9 10 10 10 11 11 11 11 11 11 11 11 12 12 12 13 13 13 13 13 13 13 13 13 12 12 12 12 11 10 11 10 9 8 10 11 11
4 6 6 7 8 8 9 9 10 10 10 11 11 11 11 11 11 11 12 12 12 13 13 13 13 13 13 13 13 12 12 12 11 10 7 8 9 11 9 9 10 10 11
5 7 9 8 8 8 9 10 10 10 10 10 11 11 11 11 11 11 11 11 12 12 12 12 12 12 12 12 12 12 12 11 9 7 6 6 7 10 9 9 9 10 10
6 8 10 8 9 9 9 10 10 10 10 10 10 10 10 11 10 10 10 11 11 11 11 11 11 11 11 11 11 11 11 10 9 6 6 6 7 9 9 8 8 9 9
8 8 10 9 9 9 9 10 10 10 10 10 11 10 10 10 10 10 10 11 11 11 11 10 10 10 10 10 10 10 10 7 4 5 5 5 7 9 8 7 8 8 9
8 8 10 10 9 9 9 9 9 10 10 10 11 11 10 10 9 9 10 10 10 10 10 10 10 9 9 9 9 9 8 6 5 5 5 6 8 7 7 7 7 8 8
8 7 8 9 10 10 10 10 10 10 10 11 10 10 10 9 9 8 8 8 9 10 10 10 9 8 8 8 8 8 7 5 4 3 4 5 8 7 6 6 7 7 8
7 7 7 8 8 8 9 11 10 10 10 10 10 10 9 9 9 8 8 8 8 9 9 9 9 8 8 8 7 8 7 7 4 4 3 6 8 7 6 6 7 7 8
7 6 7 7 7 7 8 10 10 11 10 9 9 9 7 6 7 7 7 8 8 8 8 8 8 9 8 9 8 8 8 4 4 2 3 7 7 7 6 7 7 7 8
7 7 6 6 6 6 6 6 5 6 7 5 5 5 4 5 4 5 9 8 8 8 8 8 8 9 8 6 8 9 4 4 3 3 4 7 7 6 7 8 8 8 8
6 6 6 6 5 5 5 4 3 3 4 5 6 4 4 3 4 4 4 6 6 7 6 8 8 5 4 3 3 4 3 3 2 2 5 8 6 6 6 7 8 8 8
6 6 5 6 5 4 4 4 3 3 3 4 5 3 4 2 2 3 2 3 3 2 3 3 3 4 3 3 3 3 4 3 2 2 5 8 6 6 6 6 7 8 8
5 5 5 4 4 4 4 2 3 3 3 4 3 3 3 3 3 3 2 2 2 2 3 3 2 3 3 3 3 3 3 3 3 3 4 8 6 6 7 7 7 8 8
5 5 5 4 5 3 3 3 3 3 3 3 3 3 2 2 2 2 3 2 2 2 2 2 2 3 2 2 2 3 3 3 3 3 3 6 8 7 7 7 7 8 9
4 5 4 4 4 4 3 3 3 3 3 3 3 3 2 2 2 2 2 2 2 2 3 2 2 2 2 3 3 3 3 3 3 3 3 3 5 8 8 7 8 8 9
4 4 3 3 4 4 3 2 2 2 3 2 2 2 2 2 2 1 1 1 2 2 2 2 2 2 1 2 2 2 2 3 4 4 4 4 3 3 7 8 7 8 8
4 4 3 2 3 3 3 3 2 2 1 1 2 1 2 1 1 1 1 1 2 2 2 2 2 1 2 2 2 2 2 2 3 4 4 4 3 3 3 6 8 7 8
4 4 4 3 3 3 3 3 2 2 2 1 1 1 1 1 1 1 1 2 2 2 1 1 2 2 2 2 2 1 2 2 2 2 4 4 3 4 4 3 4 6 8
5 4 4 4 4 3 2 2 2 2 2 1 1 2 1 1 1 1 1 1 2 2 2 3 2 3 2 2 2 2 2 3 2 2 3 3 3 4 3 3 4 3 4
6 5 5 5 4 4 3 2 1 1 1 1 0 1 2 1 2 2 2 2 2 2 3 2 2 2 2 2 2 2 2 3 3 2 3 3 3 3 4 5 4 4 4
6 6 5 5 5 4 3 3 2 2 2 2 2 2 1 1 1 1 1 1 1 3 2 2 2 3 2 2 2 2 2 1 0 2 2 2 2 2 3 3 4 4 4
7 7 6 5 5 5 4 3 3 2 2 1 1 1 1 1 1 2 2 2 2 2 2 4 3 3 3 2 2 2 3 2 2 1 2 2 3 3 3 3 2 3 3
8 7 7 6 5 5 4 4 4 3 2 2 2 2 2 2 2 2 2 2 2 2 2 2 2 3 3 3 2 2 2 3 4 3 2 2 2 2 2 2 2 2 2
8 8 7 7 6 5 5 5 4 3 2 2 2 2 2 2 2 2 2 2 3 2 2 3 3 4 3 3 3 3 3 3 3 3 3 3 2 1 2 1 2 2 2
Wind_Direction
96 97 108 118 118 121 123 127 128 128 129 127 126 127 128 131 133 133 133 133 134 136 138 137 135 134 131 130 129 125 124 123 124 124 125 126 123 121 123 131 139 118 116
96 109 116 128 125 125 126 126 126 127 127 128 127 125 125 128 133 134 133 134 136 138 139 137 135 134 132 130 129 126 126 126 126 127 132 129 125 124 127 127 104 110 125
99 114 129 126 126 122 124 126 126 125 128 131 129 128 126 126 132 135 135 135 137 137 139 138 136 133 130 132 131 130 128 125 128 137 154 141 127 129 128 121 113 123 128
99 116 115 124 126 125 125 129 129 126 128 130 128 128 127 127 130 134 135 137 138 137 138 137 134 134 133 133 133 131 132 130 135 161 155 125 126 127 133 133 133 134 134
102 113 114 125 125 128 130 130 129 127 125 127 126 126 128 128 129 131 134 138 136 134 133 133 135 137 137 134 133 133 135 136 152 177 117 120 119 125 136 139 140 141 141
108 114 114 120 118 122 125 127 132 131 128 126 123 121 124 126 127 128 130 137 136 134 133 134 136 138 138 138 137 136 136 146 176 134 127 129 121 132 142 143 145 147 148
102 109 115 116 117 116 120 122 125 128 130 128 126 123 123 123 123 125 128 132 136 139 135 135 136 138 140 141 141 141 143 164 158 129 133 126 118 132 144 148 152 155 158
99 105 115 122 119 115 116 118 118 121 124 124 122 122 122 121 122 123 129 134 137 140 138 136 134 138 141 141 142 144 149 184 154 148 143 131 120 138 148 161 163 161 164
98 104 111 120 125 126 120 116 114 116 120 122 120 120 122 124 124 126 128 133 138 142 142 140 139 141 140 141 143 148 158 201 192 153 150 130 132 149 159 167 172 171 173
90 98 103 104 111 123 124 117 112 114 115 118 120 121 129 138 140 143 145 135 136 138 141 143 140 135 137 140 144 152 169 205 180 158 149 128 144 159 168 174 178 177 175
85 88 98 104 111 110 112 116 121 122 117 126 128 130 147 143 140 151 122 134 141 142 145 145 144 143 149 151 154 166 189 196 159 164 135 124 158 174 181 182 181 179 183
94 93 94 93 103 109 107 113 121 122 117 116 111 122 126 116 124 123 126 138 145 149 151 151 159 171 188 165 163 188 191 179 176 165 130 143 168 184 190 189 189 189 191
99 98 99 98 93 101 111 111 105 107 111 120 117 122 115 125 132 136 137 145 150 161 162 157 176 183 172 163 179 180 173 178 171 181 141 153 176 194 197 194 193 195 195
100 94 93 103 106 100 99 106 121 116 116 114 117 124 120 119 122 121 128 128 141 144 146 162 165 161 168 181 194 183 175 188 184 186 140 155 181 201 207 201 195 196 200
104 99 96 103 104 108 105 107 105 106 108 109 113 116 120 128 125 120 120 134 146 141 155 159 157 154 166 175 195 185 199 193 194 201 153 163 185 206 213 210 205 203 207
114 108 107 113 110 109 113 109 106 110 110 105 105 102 114 116 115 122 142 146 146 154 137 145 154 162 170 161 188 195 217 209 195 209 199 171 183 202 214 215 215 217 217
116 110 115 121 118 119 115 118 117 118 115 107 105 110 119 122 117 144 140 157 149 149 147 164 156 165 179 176 184 195 202 219 216 211 220 217 188 191 205 218 223 226 227
123 120 122 129 127 128 123 116 112 113 116 121 119 118 117 106 125 141 131 152 158 166 163 159 184 170 165 198 191 205 196 198 209 208 211 210 222 209 193 204 220 226 226
139 138 138 136 139 139 136 139 143 127 123 131 129 120 117 138 152 175 143 121 171 158 165 193 137 185 187 208 202 197 216 211 211 214 213 212 213 228 223 182 202 219 225
145 148 151 157 162 164 163 156 166 149 161 162 145 122 141 167 168 217 168 159 185 163 175 183 158 194 218 218 239 211 236 231 227 219 222 211 209 222 230 224 206 206 210
152 154 160 172 169 180 185 195 185 173 177 167 163 141 177 191 180 225 256 141 209 183 196 195 190 189 204 208 234 227 213 209 207 221 227 227 217 222 231 226 229 234 202
164 165 169 175 175 180 170 194 199 222 209 176 165 150 204 196 212 204 204 204 190 189 190 198 205 231 204 195 247 253 224 188 191 196 202 209 224 222 223 222 227 228 253
174 174 174 174 174 179 172 180 171 178 203 175 178 178 187 196 215 255 222 243 215 225 187 205 215 227 230 218 229 272 275 289 297 176 203 208 221 240 243 230 226 226 235
180 175 175 175 180 181 186 194 190 191 186 158 195 142 169 194 210 215 216 219 238 238 199 222 193 225 240 243 215 246 282 320 282 238 205 197 209 229 258 264 249 225 229
181 176 172 173 178 180 187 186 201 207 202 192 189 162 220 194 213 222 217 224 230 236 226 247 227 239 241 254 254 244 240 237 251 264 263 249 227 224 229 249 260 257 242
179 177 173 171 178 181 188 191 202 212 226 226 228 215 212 192 195 199 222 228 237 247 234 233 234 229 248 261 268 262 251 253 254 256 265 261 260 253 234 247 258 254 244